This is the latest recevied weather packets stored in our database for station/object VA3ZFM-10. If no packets are shown the sender has not sent any weather packets the latest 10 day(s).
| Time | Temp. | Humidity | Pressure | Rain* | Wind** | Luminosity | Snow |
|---|---|---|---|---|---|---|---|
| 1777664504 | 6.67° C | 61% | 1010.5 hPa | 0 mm | - | - | - |
| 1777664202 | 7.22° C | 57% | 1010.3 hPa | 0 mm | - | - | - |
| 1777663901 | 7.78° C | 56% | 1010.3 hPa | 0 mm | - | - | - |
| 1777663597 | 7.78° C | 55% | 1010.4 hPa | 0 mm | - | - | - |
| 1777663295 | 7.22° C | 55% | 1010.5 hPa | 0 mm | - | - | - |
| 1777662992 | 7.78° C | 56% | 1010.6 hPa | 0 mm | - | - | - |
| 1777662689 | 7.22° C | 57% | 1010.4 hPa | 0 mm | - | - | - |
| 1777662385 | 7.78° C | 56% | 1010.5 hPa | 0 mm | - | - | - |
| 1777662080 | 7.78° C | 58% | 1010.7 hPa | 0 mm | - | - | - |
| 1777661777 | 7.22° C | 60% | 1010.8 hPa | 0 mm | - | - | - |
| 1777661472 | 7.22° C | 62% | 1010.5 hPa | 0 mm | - | - | - |
| 1777661169 | 6.67° C | 64% | 1011 hPa | 0 mm | - | - | - |
| 1777660864 | 6.11° C | 66% | 1011 hPa | 0 mm | - | - | - |
| 1777660561 | 5.56° C | 69% | 1010.9 hPa | 0 mm | - | - | - |
| 1777660257 | 5.56° C | 71% | 1011.3 hPa | 0 mm | - | - | - |
| 1777659954 | 5° C | 71% | 1010.9 hPa | 0 mm | - | - | - |
| 1777659651 | 4.44° C | 73% | 1011.2 hPa | 0 mm | - | - | - |
| 1777659348 | 4.44° C | 79% | 1011.1 hPa | 0 mm | - | - | - |
| 1777659045 | 4.44° C | 81% | 1011.3 hPa | 0 mm | - | - | - |
| 1777658743 | 3.89° C | 79% | 1011.3 hPa | 0 mm | - | - | - |
| 1777658438 | 3.89° C | 77% | 1011.3 hPa | 0 mm | - | - | - |
| 1777658135 | 5° C | 73% | 1011.2 hPa | 0 mm | - | - | - |
| 1777657832 | 5° C | 70% | 1011.1 hPa | 0 mm | - | - | - |
| 1777657529 | 5.56° C | 68% | 1011.2 hPa | 0 mm | - | - | - |
| 1777657227 | 5.56° C | 63% | 1011.1 hPa | 0 mm | - | - | - |
* Rain latest hour (hover to see other rain measurements)
** Current wind speed in m/s (hover to see current wind gust speed)